Aeroporto :
LOGIN :

Iscrizione | Disclaimer

   EN    FR    IT 

 










Sommario :    VFR   VFR Marginale   IFR   IFR Intensivo   IFR Molto Intensivo
Visibilità : 
Base nubi : 
>= 8 km
>= 3000ft
5 / 8 km
1000 / 3000 ft
1500m / 5 km
500 / 1000 ft
800 / 1500m
200 / 500 ft
< 800m
< 200 ft
Simboli :   Temporali  Nebbia  Neve Forte  Precipitazioni Forti  Vento > 20 kt
SIGMETs :   Varie  Temporali  Ghiacco  Turbolenza  Onda orograficha  Ceneri Vulcaniche






- Altitudine del aeroporto : 405 ft
- Codice IATA : ODH


EGVO - RAF Odiham

ULTIMO METAR :
  • 211850Z 00000KT CAVOK 18/12 Q1016 NOSIG RMK BLU BLU

METARs OBSOLETI :
  • 211750Z 34003KT CAVOK 21/12 Q1015 NOSIG RMK BLU BLU
  • 211650Z 18001KT CAVOK 24/11 Q1015 NOSIG RMK BLU BLU

TAF TAF EGVO
Valido dal 21 a 18 ore il 22 a 06 ore UTC


211637Z 2118/2206 23004KT CAVOK
PROB40 2122/2124 7000 HZ
BECMG 2200/2203 7000 HZ
PROB40 2203/2206 3000 MIFG BR
PROB30
TEMPO 2204/2206 0500 PRFG SCT000



MetMap, La meteo Aeronautica in un colpo d'occhio ! - Copyright ORBIFLY Dicembre 2007 - Disclaimer

ORBIFLY MET'MAP TEAM :

Programmazione e sviluppo : Alexandra Zaïnal
Concezione : Baudouin d'Aumeries
Aiuto per la programmazione : Marc-Olivier Méhu
Supporto tecnico e logistico : Manuel Goepfert
Aiuto per la traduzione : Arnaldo La Scala

Contatto : metmap@orbifly.com




FONTI E CREDITI :

   NOAA